User: anonymous   Login
Location: Fort Wayne
(41.1310°N, 85.1290°W)
Time: 02:59:26
(UTC-04:00)
Language:

Meteor 2-10 Rocket - Orbit

View from above orbital plane
View from above orbital plane
View from above satellite
View from above satellite

Ground track
Ground track

The orbit data is extracted from the following two-line orbital elements,

1 14453U 83109B   14297.79115442  .00000195  00000-0  74497-4 0  2649
2 14453 081.1681 358.4182 0104345 339.6957 157.3127 14.24525358609936
Epoch (UTC): 24 October 2014 18:59:15
Eccentricity: 0.0104345
inclination: 81.1681°
perigee height: 735 km
apogee height: 885 km
right ascension of ascending node: 358.4182°
argument of perigee: 339.6957°
revolutions per day: 14.24525358
mean anomaly at epoch: 157.3127°
orbit number at epoch: 60993

The dashed part of the orbit path shows where the satellite is in the earth's shadow,  

DLR